This is the latest recevied weather packets stored in our database for station/object E22FEY-1. If no packets are shown the sender has not sent any weather packets the latest 10 day(s).
| Time | Temp. | Humidity | Pressure | Rain* | Wind** | Luminosity | Snow |
|---|---|---|---|---|---|---|---|
| 1777726220 | 34.44° C | 55% | 1007 hPa | - | - | 0 W/m² | - |
| 1777725295 | 34.44° C | 55% | 1006 hPa | - | - | 0 W/m² | - |
| 1777724370 | 34.44° C | 53% | 1006 hPa | - | - | 0 W/m² | - |
| 1777723446 | 35° C | 53% | 1006 hPa | - | - | 0 W/m² | - |
| 1777722521 | 35° C | 51% | 1005 hPa | - | - | 0 W/m² | - |
| 1777721597 | 34.44° C | 50% | 1005 hPa | - | - | 0 W/m² | - |
| 1777720673 | 35.56° C | 45% | 1005 hPa | - | - | 0 W/m² | - |
| 1777719748 | 36.67° C | 43% | 1005 hPa | - | - | 0 W/m² | - |
| 1777718823 | 36.67° C | 43% | 1005 hPa | - | - | 0 W/m² | - |
| 1777717899 | 36.67° C | 43% | 1005 hPa | - | - | 0 W/m² | - |
| 1777716975 | 36.67° C | 42% | 1005 hPa | - | - | 0 W/m² | - |
| 1777716050 | 36.67° C | 41% | 1005 hPa | - | - | 0 W/m² | - |
| 1777715126 | 38.33° C | 41% | 1005 hPa | - | - | 0 W/m² | - |
| 1777714204 | 37.78° C | 40% | 1005 hPa | - | - | 0 W/m² | - |
| 1777713278 | 38.33° C | 39% | 1005 hPa | - | - | 0 W/m² | - |
| 1777712353 | 38.33° C | 40% | 1005 hPa | - | - | 0 W/m² | - |
| 1777711429 | 38.33° C | 39% | 1005 hPa | - | - | 0 W/m² | - |
| 1777710503 | 37.78° C | 43% | 1005 hPa | - | - | 0 W/m² | - |
| 1777709579 | 38.89° C | 39% | 1006 hPa | - | - | 0 W/m² | - |
| 1777708654 | 37.78° C | 41% | 1006 hPa | - | - | 0 W/m² | - |
| 1777707730 | 38.89° C | 36% | 1006 hPa | - | - | 0 W/m² | - |
| 1777706805 | 38.89° C | 38% | 1006 hPa | - | - | 0 W/m² | - |
| 1777705881 | 37.78° C | 41% | 1007 hPa | - | - | 0 W/m² | - |
| 1777704957 | 38.89° C | 36% | 1007 hPa | - | - | 0 W/m² | - |
| 1777704033 | 38.33° C | 37% | 1007 hPa | - | - | 0 W/m² | - |
* Rain since midnight (hover to see other rain measurements)
** Current wind speed in m/s (hover to see current wind gust speed)